"SCET";"TARGET";"ELECTRON_DENSITY";"ERROR_FLAG";"ELECTRON_DENSITY_ERROR";"FREQ_FCE";"MEASURED_VALUE";"MEASURED_ITEM";"FREQ_PLASMA";"FREQ_UPPER_HYBRID";"FREQ_R_EQUALS_ZERO";"FREQ_L_EQUALS_ZERO";"ORBIT_NUMBER";"SATURN_RADIUS";"SATURN_IAU_LONGITUDE";"SATURN_SLS4_S_LONGITUDE";"SATURN_SLS4_N_LONGITUDE";"SATURN_SLS5_S_LONGITUDE";"SATURN_SLS5_N_LONGITUDE";"SATURN_LOCAL_TIME";"SATURN_KRONOGRAPHIC_LATITUDE";"SATURN_MAGNETIC_LATITUDE";"SATURN_L";"SATURN_L_OFFSET";"SATURN_SOLAR_EQUATORIAL_X";"SATURN_SOLAR_EQUATORIAL_Y";"SATURN_SOLAR_EQUATORIAL_Z";"SATURN_ALTITUDE";"ENCELADUS_ENCOUNTER_NUMBER";"ENCELADUS_RADIUS";"ENCELADUS_COROTATIONAL_X";"ENCELADUS_COROTATIONAL_Y";"ENCELADUS_COROTATIONAL_Z";"ENCELADUS_TRUE_ANOMALY";"ENCELADUS_PERIAPSIS_TIME";"JUPITER_RADIUS";"JUPITER_SYSTEMIII_LONGITUDE";"JUPITER_MAGNETIC_LATITUDE";"JUPITER_MAGNETIC_LOCAL_TIME";"JUPITER_L";"IO_PHASE";"EARTH_RADIUS";"EARTH_MAGNETIC_LATITUDE";"EARTH_LOCAL_TIME";"EARTH_L"
"[UTC]";"[0=Saturn, 1=Enceladus, 2=Jupiter, 3=Earth]";"[cm-3]";"[0=automated, 1=manual]";"[normalized density error]";"[Hz]";"[Hz]";"[0=upper hybrid frequency, 1=plasma frequency cutoff]";"[Hz]";"[Hz]";"[Hz]";"[Hz}";"[0, A, B, C, 3, 4, ... , 292, 293]";"[Rs where 1Rs=60268km]";"[degrees]";"[degrees]";"[degrees]";"[degrees]";"[degrees]";"[hours]";"[degrees]";"[degrees where offset=2293km north]";"[Rs where 1Rs=60268km]";"[Rs where 1Rs=60268km and offset=2293km north]";"[Rs where 1Rs=60268km]";"[Rs where 1Rs=60268km]";"[Rs where 1Rs=60268km]";"[km where ellipsoid a,b=60268km and c=54364km]";"[E0, E1, E2, ... , E21, E22]";"[Renc where 1Renc=252.1km]";"[Renc where 1Renc=252.1km]";"[Renc where 1Renc=252.1km]";"[Renc where 1Renc=252.1km]";"[degrees]";"[UTC]";"[Rj where 1Rj=71492km]";"[degrees]";"[degrees using JRM09 model]";"[hours using JRM09 model]";"[Rj where 1Rj=71492km]";"[degrees]";"[Re where 1Re=6378.1366km]";"[degrees]";"[hours]";"[Re where 1Re=6378.1366km]"
2006-07-24T00:00:00.556Z;0;4.3090e+01;0;     0.077;  6498.212;  59301.656; 0;  58944.547;  59301.656;  62283.133;  55784.922; 26;   4.446; 243.932; 293.745; 148.824; 287.824; 137.724;  13.602;  -3.611;  -4.100;   4.464;   4.444;   4.053;   1.807;  -0.280;;;;;;;;;;;;;;;;;;
2006-07-24T00:00:14.556Z;0;4.3010e+01;0;     0.165;  6498.212;  59248.742; 0;  58891.312;  59248.742;  62229.980;  55731.766; 26;   4.447; 244.018; 293.829; 148.910; 287.908; 137.810;  13.605;  -3.599;  -4.088;   4.465;   4.445;   4.052;   1.811;  -0.279;;;;;;;;;;;;;;;;;;
2006-07-24T00:00:30.556Z;0;4.3390e+01;0;     0.078;  6498.212;  59505.410; 0;  59149.531;  59505.410;  62487.809;  55989.594; 26;   4.448; 244.116; 293.925; 149.009; 288.003; 137.909;  13.608;  -3.586;  -4.074;   4.466;   4.446;   4.052;   1.815;  -0.278;;;;;;;;;;;;;;;;;;
2006-07-24T00:00:46.556Z;0;4.3170e+01;0;     0.076;  6498.212;  59356.707; 0;  58999.930;  59356.707;  62338.434;  55840.223; 26;   4.449; 244.214; 294.021; 149.108; 288.099; 138.007;  13.612;  -3.572;  -4.061;   4.466;   4.447;   4.051;   1.819;  -0.277;;;;;;;;;;;;;;;;;;
2006-07-24T00:00:54.556Z;0;4.3370e+01;0;     0.074;  6498.212;  59494.910; 0;  59138.969;  59494.910;  62477.262;  55979.047; 26;   4.450; 244.263; 294.069; 149.158; 288.147; 138.056;  13.614;  -3.565;  -4.054;   4.467;   4.448;   4.051;   1.821;  -0.277;;;;;;;;;;;;;;;;;;
2006-07-24T00:01:02.556Z;0;4.3310e+01;0;     0.077;  6482.336;  59453.270; 0;  59098.820;  59453.270;  62428.801;  55946.465; 26;   4.450; 244.312; 294.116; 149.207; 288.195; 138.106;  13.615;  -3.559;  -4.047;   4.467;   4.448;   4.050;   1.823;  -0.276;;;;;;;;;;;;;;;;;;
2006-07-24T00:01:10.556Z;0;4.3220e+01;0;     0.072;  6482.336;  59391.336; 0;  59036.516;  59391.336;  62366.586;  55884.254; 26;   4.451; 244.361; 294.164; 149.256; 288.243; 138.155;  13.617;  -3.552;  -4.040;   4.468;   4.448;   4.050;   1.825;  -0.276;;;;;;;;;;;;;;;;;;
2006-07-24T00:01:18.555Z;0;4.3290e+01;0;     0.076;  6482.336;  59439.621; 0;  59085.090;  59439.621;  62415.090;  55932.754; 26;   4.451; 244.410; 294.212; 149.306; 288.291; 138.204;  13.619;  -3.545;  -4.034;   4.468;   4.449;   4.050;   1.827;  -0.275;;;;;;;;;;;;;;;;;;
2006-07-24T00:01:26.555Z;0;4.3390e+01;0;     0.073;  6482.336;  59509.484; 0;  59155.371;  59509.484;  62485.266;  56002.930; 26;   4.452; 244.459; 294.260; 149.355; 288.339; 138.253;  13.620;  -3.539;  -4.027;   4.469;   4.449;   4.049;   1.829;  -0.275;;;;;;;;;;;;;;;;;;
2006-07-24T00:01:34.555Z;0;4.3440e+01;0;     0.082;  6482.336;  59541.301; 0;  59187.379;  59541.301;  62517.227;  56034.891; 26;   4.452; 244.508; 294.308; 149.405; 288.387; 138.302;  13.622;  -3.532;  -4.020;   4.469;   4.450;   4.049;   1.831;  -0.274;;;;;;;;;;;;;;;;;;
2006-07-24T00:01:42.555Z;0;4.3370e+01;0;     0.070;  6482.336;  59491.352; 0;  59137.129;  59491.352;  62467.051;  55984.715; 26;   4.453; 244.558; 294.356; 149.454; 288.435; 138.352;  13.624;  -3.525;  -4.013;   4.469;   4.450;   4.048;   1.833;  -0.274;;;;;;;;;;;;;;;;;;
2006-07-24T00:01:50.555Z;0;4.3550e+01;0;     0.081;  6482.336;  59612.848; 0;  59259.352;  59612.848;  62589.094;  56106.758; 26;   4.453; 244.607; 294.404; 149.504; 288.482; 138.401;  13.626;  -3.518;  -4.007;   4.470;   4.451;   4.048;   1.835;  -0.273;;;;;;;;;;;;;;;;;;
2006-07-24T00:01:58.555Z;0;4.3590e+01;0;     0.079;  6482.336;  59644.215; 0;  59290.906;  59644.215;  62620.598;  56138.262; 26;   4.453; 244.656; 294.452; 149.553; 288.530; 138.450;  13.627;  -3.512;  -4.000;   4.470;   4.451;   4.048;   1.837;  -0.273;;;;;;;;;;;;;;;;;;
2006-07-24T00:02:06.555Z;0;4.3600e+01;0;     0.073;  6464.192;  59649.531; 0;  59298.234;  59649.531;  62618.352;  56154.160; 26;   4.454; 244.705; 294.500; 149.603; 288.578; 138.499;  13.629;  -3.505;  -3.993;   4.471;   4.452;   4.047;   1.839;  -0.272;;;;;;;;;;;;;;;;;;
2006-07-24T00:02:14.555Z;0;4.3390e+01;0;     0.077;  6464.192;  59505.637; 0;  59153.488;  59505.637;  62473.816;  56009.625; 26;   4.454; 244.754; 294.548; 149.652; 288.626; 138.548;  13.631;  -3.498;  -3.986;   4.471;   4.452;   4.047;   1.841;  -0.272;;;;;;;;;;;;;;;;;;
2006-07-24T00:02:22.555Z;0;4.3640e+01;0;     0.077;  6464.192;  59676.473; 0;  59325.336;  59676.473;  62645.410;  56181.219; 26;   4.455; 244.803; 294.596; 149.702; 288.674; 138.597;  13.633;  -3.491;  -3.979;   4.472;   4.453;   4.047;   1.843;  -0.271;;;;;;;;;;;;;;;;;;
2006-07-24T00:02:30.555Z;0;4.3860e+01;0;     0.078;  6464.192;  59818.703; 0;  59468.406;  59818.703;  62788.270;  56324.078; 26;   4.455; 244.852; 294.644; 149.752; 288.721; 138.646;  13.634;  -3.485;  -3.973;   4.472;   4.453;   4.046;   1.845;  -0.271;;;;;;;;;;;;;;;;;;
2006-07-24T00:02:38.555Z;0;4.3770e+01;0;     0.080;  6464.192;  59757.977; 0;  59407.324;  59757.977;  62727.277;  56263.082; 26;   4.456; 244.902; 294.692; 149.801; 288.769; 138.696;  13.636;  -3.478;  -3.966;   4.472;   4.454;   4.046;   1.848;  -0.270;;;;;;;;;;;;;;;;;;
2006-07-24T00:02:46.555Z;0;4.3940e+01;0;     0.078;  6464.192;  59876.422; 0;  59526.465;  59876.422;  62846.242;  56382.051; 26;   4.456; 244.951; 294.740; 149.851; 288.817; 138.745;  13.638;  -3.471;  -3.959;   4.473;   4.454;   4.046;   1.850;  -0.270;;;;;;;;;;;;;;;;;;
2006-07-24T00:02:54.555Z;0;4.3950e+01;0;     0.079;  6464.192;  59879.695; 0;  59529.758;  59879.695;  62849.531;  56385.340; 26;   4.457; 245.000; 294.788; 149.900; 288.865; 138.794;  13.639;  -3.464;  -3.952;   4.473;   4.455;   4.045;   1.852;  -0.269;;;;;;;;;;;;;;;;;;
2006-07-24T00:03:02.555Z;0;4.4180e+01;0;     0.077;  6446.244;  60038.066; 0;  59691.000;  60038.066;  63001.078;  56554.832; 26;   4.457; 245.049; 294.836; 149.950; 288.912; 138.843;  13.641;  -3.458;  -3.945;   4.474;   4.455;   4.045;   1.854;  -0.269;;;;;;;;;;;;;;;;;;
2006-07-24T00:03:10.555Z;0;4.4140e+01;0;     0.078;  6446.244;  60010.906; 0;  59663.680;  60010.906;  62973.797;  56527.555; 26;   4.458; 245.098; 294.884; 149.999; 288.960; 138.892;  13.643;  -3.451;  -3.939;   4.474;   4.456;   4.044;   1.856;  -0.268;;;;;;;;;;;;;;;;;;
2006-07-24T00:03:18.555Z;0;4.3980e+01;0;     0.083;  6446.244;  59897.641; 0;  59549.754;  59897.641;  62860.039;  56413.793; 26;   4.458; 245.147; 294.933; 150.049; 289.008; 138.941;  13.645;  -3.444;  -3.932;   4.475;   4.456;   4.044;   1.858;  -0.268;;;;;;;;;;;;;;;;;;
2006-07-24T00:03:26.555Z;0;4.4200e+01;0;     0.078;  6446.244;  60049.863; 0;  59702.863;  60049.863;  63012.926;  56566.680; 26;   4.459; 245.197; 294.981; 150.098; 289.056; 138.990;  13.646;  -3.437;  -3.925;   4.475;   4.457;   4.044;   1.860;  -0.267;;;;;;;;;;;;;;;;;;
2006-07-24T00:03:34.555Z;0;4.4230e+01;0;     0.078;  6446.244;  60065.773; 0;  59718.867;  60065.773;  63028.906;  56582.660; 26;   4.459; 245.246; 295.029; 150.148; 289.103; 139.039;  13.648;  -3.431;  -3.918;   4.475;   4.457;   4.043;   1.862;  -0.267;;;;;;;;;;;;;;;;;;
2006-07-24T00:03:42.555Z;0;4.4430e+01;0;     0.082;  6446.244;  60200.590; 0;  59854.465;  60200.590;  63164.305;  56718.062; 26;   4.460; 245.295; 295.077; 150.198; 289.151; 139.088;  13.650;  -3.424;  -3.912;   4.476;   4.458;   4.043;   1.864;  -0.266;;;;;;;;;;;;;;;;;;
2006-07-24T00:03:50.555Z;0;4.4380e+01;0;     0.079;  6446.244;  60167.367; 0;  59821.051;  60167.367;  63130.938;  56684.695; 26;   4.460; 245.344; 295.125; 150.247; 289.199; 139.137;  13.652;  -3.417;  -3.905;   4.476;   4.458;   4.043;   1.866;  -0.266;;;;;;;;;;;;;;;;;;
2006-07-24T00:03:50.555Z;0;4.4380e+01;0;     0.079;  6446.244;  60167.367; 0;  59821.051;  60167.367;  63130.938;  56684.695; 26;   4.460; 245.344; 295.125; 150.247; 289.199; 139.137;  13.652;  -3.417;  -3.905;   4.476;   4.458;   4.043;   1.866;  -0.266;;;;;;;;;;;;;;;;;;
2006-07-24T00:03:58.554Z;0;4.5280e+01;0;     0.091;  6446.244;  60772.289; 0;  60429.438;  60772.289;  63738.457;  57292.211; 26;   4.461; 245.393; 295.173; 150.297; 289.246; 139.186;  13.653;  -3.411;  -3.898;   4.477;   4.459;   4.042;   1.868;  -0.265;;;;;;;;;;;;;;;;;;
2006-07-24T00:03:58.554Z;0;4.5280e+01;0;     0.091;  6446.244;  60772.289; 0;  60429.438;  60772.289;  63738.457;  57292.211; 26;   4.461; 245.393; 295.173; 150.297; 289.246; 139.186;  13.653;  -3.411;  -3.898;   4.477;   4.459;   4.042;   1.868;  -0.265;;;;;;;;;;;;;;;;;;
2006-07-24T00:04:06.554Z;0;4.5450e+01;0;     0.086;  6428.492;  60881.984; 0;  60541.645;  60881.984;  63841.152;  57412.660; 26;   4.461; 245.443; 295.221; 150.346; 289.294; 139.235;  13.655;  -3.404;  -3.891;   4.477;   4.459;   4.042;   1.870;  -0.265;;;;;;;;;;;;;;;;;;
2006-07-24T00:04:06.554Z;0;4.5450e+01;0;     0.086;  6428.492;  60881.984; 0;  60541.645;  60881.984;  63841.152;  57412.660; 26;   4.461; 245.443; 295.221; 150.346; 289.294; 139.235;  13.655;  -3.404;  -3.891;   4.477;   4.459;   4.042;   1.870;  -0.265;;;;;;;;;;;;;;;;;;
2006-07-24T00:04:14.554Z;0;4.5450e+01;0;     0.088;  6428.492;  60880.410; 0;  60540.059;  60880.410;  63839.574;  57411.082; 26;   4.462; 245.492; 295.269; 150.396; 289.341; 139.284;  13.657;  -3.397;  -3.884;   4.478;   4.460;   4.042;   1.872;  -0.264;;;;;;;;;;;;;;;;;;
2006-07-24T00:04:14.554Z;0;4.5450e+01;0;     0.088;  6428.492;  60880.410; 0;  60540.059;  60880.410;  63839.574;  57411.082; 26;   4.462; 245.492; 295.269; 150.396; 289.341; 139.284;  13.657;  -3.397;  -3.884;   4.478;   4.460;   4.042;   1.872;  -0.264;;;;;;;;;;;;;;;;;;
2006-07-24T00:04:22.554Z;0;4.4360e+01;0;     0.082;  6428.492;  60154.523; 0;  59810.043;  60154.523;  63110.594;  56682.102; 26;   4.462; 245.541; 295.317; 150.446; 289.389; 139.333;  13.658;  -3.390;  -3.878;   4.478;   4.460;   4.041;   1.874;  -0.264;;;;;;;;;;;;;;;;;;
2006-07-24T00:04:22.554Z;0;4.4360e+01;0;     0.082;  6428.492;  60154.523; 0;  59810.043;  60154.523;  63110.594;  56682.102; 26;   4.462; 245.541; 295.317; 150.446; 289.389; 139.333;  13.658;  -3.390;  -3.878;   4.478;   4.460;   4.041;   1.874;  -0.264;;;;;;;;;;;;;;;;;;
2006-07-24T00:04:30.554Z;0;4.4600e+01;0;     0.081;  6428.492;  60312.715; 0;  59969.141;  60312.715;  63269.465;  56840.973; 26;   4.463; 245.590; 295.365; 150.495; 289.437; 139.382;  13.660;  -3.384;  -3.871;   4.478;   4.461;   4.041;   1.876;  -0.263;;;;;;;;;;;;;;;;;;
2006-07-24T00:04:30.554Z;0;4.4600e+01;0;     0.081;  6428.492;  60312.715; 0;  59969.141;  60312.715;  63269.465;  56840.973; 26;   4.463; 245.590; 295.365; 150.495; 289.437; 139.382;  13.660;  -3.384;  -3.871;   4.478;   4.461;   4.041;   1.876;  -0.263;;;;;;;;;;;;;;;;;;
2006-07-24T00:04:38.554Z;0;4.4530e+01;0;     0.079;  6428.492;  60271.062; 0;  59927.250;  60271.062;  63227.637;  56799.145; 26;   4.463; 245.640; 295.413; 150.545; 289.484; 139.431;  13.662;  -3.377;  -3.864;   4.479;   4.461;   4.040;   1.878;  -0.263;;;;;;;;;;;;;;;;;;
2006-07-24T00:04:38.554Z;0;4.4530e+01;0;     0.079;  6428.492;  60271.062; 0;  59927.250;  60271.062;  63227.637;  56799.145; 26;   4.463; 245.640; 295.413; 150.545; 289.484; 139.431;  13.662;  -3.377;  -3.864;   4.479;   4.461;   4.040;   1.878;  -0.263;;;;;;;;;;;;;;;;;;
2006-07-24T00:04:46.554Z;0;4.4610e+01;0;     0.080;  6428.492;  60319.836; 0;  59976.305;  60319.836;  63276.617;  56848.125; 26;   4.464; 245.689; 295.461; 150.595; 289.532; 139.480;  13.664;  -3.370;  -3.857;   4.479;   4.462;   4.040;   1.880;  -0.262;;;;;;;;;;;;;;;;;;
2006-07-24T00:04:46.554Z;0;4.4610e+01;0;     0.080;  6428.492;  60319.836; 0;  59976.305;  60319.836;  63276.617;  56848.125; 26;   4.464; 245.689; 295.461; 150.595; 289.532; 139.480;  13.664;  -3.370;  -3.857;   4.479;   4.462;   4.040;   1.880;  -0.262;;;;;;;;;;;;;;;;;;
2006-07-24T00:04:54.554Z;0;4.5650e+01;0;     0.086;  6428.492;  61013.457; 0;  60673.852;  61013.457;  63973.180;  57544.688; 26;   4.464; 245.738; 295.510; 150.644; 289.579; 139.529;  13.665;  -3.364;  -3.851;   4.480;   4.462;   4.040;   1.882;  -0.262;;;;;;;;;;;;;;;;;;
2006-07-24T00:04:54.554Z;0;4.5650e+01;0;     0.086;  6428.492;  61013.457; 0;  60673.852;  61013.457;  63973.180;  57544.688; 26;   4.464; 245.738; 295.510; 150.644; 289.579; 139.529;  13.665;  -3.364;  -3.851;   4.480;   4.462;   4.040;   1.882;  -0.262;;;;;;;;;;;;;;;;;;
2006-07-24T00:05:02.554Z;0;4.6040e+01;0;     0.092;  6410.936;  61268.195; 0;  60931.859;  61268.195;  64221.586;  57810.648; 26;   4.465; 245.787; 295.558; 150.694; 289.627; 139.577;  13.667;  -3.357;  -3.844;   4.480;   4.463;   4.039;   1.884;  -0.261;;;;;;;;;;;;;;;;;;
2006-07-24T00:05:10.554Z;0;4.6110e+01;0;     0.090;  6410.936;  61311.719; 0;  60975.625;  61311.719;  64265.289;  57854.352; 26;   4.465; 245.837; 295.606; 150.744; 289.675; 139.626;  13.669;  -3.350;  -3.837;   4.481;   4.463;   4.039;   1.886;  -0.261;;;;;;;;;;;;;;;;;;
2006-07-24T00:05:18.554Z;0;4.6040e+01;0;     0.084;  6410.936;  61270.848; 0;  60934.527;  61270.848;  64224.250;  57813.312; 26;   4.466; 245.886; 295.654; 150.793; 289.722; 139.675;  13.670;  -3.343;  -3.830;   4.481;   4.464;   4.039;   1.888;  -0.260;;;;;;;;;;;;;;;;;;
2006-07-24T00:05:26.554Z;0;4.6210e+01;0;     0.082;  6410.936;  61380.141; 0;  61044.422;  61380.141;  64333.992;  57923.059; 26;   4.466; 245.935; 295.702; 150.843; 289.770; 139.724;  13.672;  -3.337;  -3.824;   4.482;   4.464;   4.038;   1.890;  -0.260;;;;;;;;;;;;;;;;;;
2006-07-24T00:05:34.554Z;0;4.6240e+01;0;     0.085;  6410.936;  61398.031; 0;  61062.410;  61398.031;  64351.957;  57941.020; 26;   4.467; 245.985; 295.750; 150.893; 289.817; 139.773;  13.674;  -3.330;  -3.817;   4.482;   4.465;   4.038;   1.893;  -0.259;;;;;;;;;;;;;;;;;;
2006-07-24T00:05:42.554Z;0;4.6360e+01;0;     0.085;  6410.936;  61478.539; 0;  61143.363;  61478.539;  64432.797;  58021.859; 26;   4.467; 246.034; 295.798; 150.942; 289.865; 139.822;  13.676;  -3.323;  -3.810;   4.482;   4.465;   4.038;   1.895;  -0.259;;;;;;;;;;;;;;;;;;
2006-07-24T00:05:50.554Z;0;4.6280e+01;0;     0.082;  6410.936;  61425.941; 0;  61090.477;  61425.941;  64379.980;  57969.047; 26;   4.468; 246.083; 295.847; 150.992; 289.912; 139.871;  13.677;  -3.317;  -3.803;   4.483;   4.466;   4.037;   1.897;  -0.258;;;;;;;;;;;;;;;;;;
2006-07-24T00:05:58.554Z;0;4.6700e+01;0;     0.084;  6410.936;  61697.883; 0;  61363.902;  61697.883;  64653.035;  58242.102; 26;   4.468; 246.132; 295.895; 151.042; 289.960; 139.919;  13.679;  -3.310;  -3.796;   4.483;   4.466;   4.037;   1.899;  -0.258;;;;;;;;;;;;;;;;;;
2006-07-24T00:06:06.554Z;0;4.6690e+01;0;     0.084;  6393.408;  61693.742; 0;  61361.570;  61693.742;  64641.484;  58248.078; 26;   4.469; 246.182; 295.943; 151.091; 290.007; 139.968;  13.681;  -3.303;  -3.790;   4.484;   4.467;   4.036;   1.901;  -0.257;;;;;;;;;;;;;;;;;;
2006-07-24T00:06:14.554Z;0;4.6600e+01;0;     0.079;  6393.408;  61632.426; 0;  61299.922;  61632.426;  64579.918;  58186.512; 26;   4.469; 246.231; 295.991; 151.141; 290.054; 140.017;  13.683;  -3.296;  -3.783;   4.484;   4.467;   4.036;   1.903;  -0.257;;;;;;;;;;;;;;;;;;
2006-07-24T00:06:22.554Z;0;4.6670e+01;0;     0.077;  6393.408;  61681.227; 0;  61348.984;  61681.227;  64628.918;  58235.512; 26;   4.470; 246.280; 296.039; 151.191; 290.102; 140.066;  13.684;  -3.290;  -3.776;   4.485;   4.468;   4.036;   1.905;  -0.256;;;;;;;;;;;;;;;;;;
2006-07-24T00:06:30.554Z;0;4.6870e+01;0;     0.081;  6393.408;  61809.418; 0;  61477.871;  61809.418;  64757.629;  58364.219; 26;   4.470; 246.330; 296.088; 151.240; 290.149; 140.114;  13.686;  -3.283;  -3.769;   4.485;   4.468;   4.035;   1.907;  -0.256;;;;;;;;;;;;;;;;;;
2006-07-24T00:06:38.553Z;0;4.7170e+01;0;     0.075;  6393.408;  62004.094; 0;  61673.594;  62004.094;  64953.086;  58559.680; 26;   4.471; 246.379; 296.136; 151.290; 290.197; 140.163;  13.688;  -3.276;  -3.763;   4.486;   4.469;   4.035;   1.909;  -0.255;;;;;;;;;;;;;;;;;;
2006-07-24T00:06:46.553Z;0;4.7140e+01;0;     0.072;  6393.408;  61986.164; 0;  61655.566;  61986.164;  64935.086;  58541.680; 26;   4.471; 246.428; 296.184; 151.340; 290.244; 140.212;  13.689;  -3.270;  -3.756;   4.486;   4.469;   4.035;   1.911;  -0.255;;;;;;;;;;;;;;;;;;
2006-07-24T00:06:54.553Z;0;4.7130e+01;0;     0.076;  6393.408;  61981.348; 0;  61650.723;  61981.348;  64930.250;  58536.844; 26;   4.472; 246.478; 296.232; 151.390; 290.292; 140.261;  13.691;  -3.263;  -3.749;   4.486;   4.470;   4.034;   1.913;  -0.254;;;;;;;;;;;;;;;;;;
2006-07-24T00:07:02.553Z;0;4.7060e+01;0;     0.075;  6375.908;  61934.809; 0;  61605.750;  61934.809;  64876.133;  58500.223; 26;   4.472; 246.527; 296.280; 151.439; 290.339; 140.309;  13.693;  -3.256;  -3.742;   4.487;   4.470;   4.034;   1.915;  -0.254;;;;;;;;;;;;;;;;;;
2006-07-24T00:07:10.553Z;0;4.7430e+01;0;     0.074;  6375.908;  62174.602; 0;  61846.816;  62174.602;  65116.879;  58740.973; 26;   4.473; 246.577; 296.329; 151.489; 290.386; 140.358;  13.695;  -3.249;  -3.736;   4.487;   4.471;   4.033;   1.917;  -0.253;;;;;;;;;;;;;;;;;;
2006-07-24T00:07:26.553Z;0;4.7490e+01;0;     0.074;  6375.908;  62210.227; 0;  61882.633;  62210.227;  65152.648;  58776.738; 26;   4.474; 246.675; 296.425; 151.589; 290.481; 140.455;  13.698;  -3.236;  -3.722;   4.488;   4.472;   4.033;   1.921;  -0.252;;;;;;;;;;;;;;;;;;
2006-07-24T00:07:34.553Z;0;4.7510e+01;0;     0.073;  6375.908;  62224.293; 0;  61896.773;  62224.293;  65166.770;  58790.859; 26;   4.474; 246.725; 296.473; 151.638; 290.528; 140.504;  13.700;  -3.229;  -3.715;   4.489;   4.472;   4.032;   1.923;  -0.252;;;;;;;;;;;;;;;;;;
2006-07-24T00:07:42.553Z;0;4.7300e+01;0;     0.072;  6375.908;  62091.172; 0;  61762.945;  62091.172;  65033.121;  58657.211; 26;   4.475; 246.774; 296.522; 151.688; 290.576; 140.553;  13.701;  -3.223;  -3.709;   4.489;   4.473;   4.032;   1.925;  -0.252;;;;;;;;;;;;;;;;;;
2006-07-24T00:07:50.553Z;0;4.7620e+01;0;     0.073;  6375.908;  62295.371; 0;  61968.227;  62295.371;  65238.129;  58862.219; 26;   4.475; 246.823; 296.570; 151.738; 290.623; 140.601;  13.703;  -3.216;  -3.702;   4.490;   4.473;   4.032;   1.927;  -0.251;;;;;;;;;;;;;;;;;;
2006-07-24T00:07:58.553Z;0;4.7360e+01;0;     0.072;  6375.908;  62129.035; 0;  61801.008;  62129.035;  65071.133;  58695.227; 26;   4.476; 246.873; 296.618; 151.788; 290.670; 140.650;  13.705;  -3.209;  -3.695;   4.490;   4.474;   4.031;   1.929;  -0.251;;;;;;;;;;;;;;;;;;
2006-07-24T00:08:06.553Z;0;4.7710e+01;0;     0.076;  6358.408;  62349.949; 0;  62024.891;  62349.949;  65285.516;  58927.109; 26;   4.476; 246.922; 296.666; 151.838; 290.718; 140.699;  13.707;  -3.203;  -3.688;   4.490;   4.474;   4.031;   1.931;  -0.250;;;;;;;;;;;;;;;;;;
2006-07-24T00:08:14.553Z;0;4.7570e+01;0;     0.073;  6358.408;  62262.812; 0;  61937.293;  62262.812;  65198.039;  58839.629; 26;   4.477; 246.972; 296.715; 151.887; 290.765; 140.747;  13.708;  -3.196;  -3.682;   4.491;   4.475;   4.030;   1.933;  -0.250;;;;;;;;;;;;;;;;;;
2006-07-24T00:08:22.553Z;0;4.7620e+01;0;     0.076;  6358.408;  62296.270; 0;  61970.926;  62296.270;  65231.625;  58873.219; 26;   4.477; 247.021; 296.763; 151.937; 290.812; 140.796;  13.710;  -3.189;  -3.675;   4.491;   4.475;   4.030;   1.935;  -0.249;;;;;;;;;;;;;;;;;;
2006-07-24T00:08:30.553Z;0;4.7690e+01;0;     0.071;  6358.408;  62341.047; 0;  62015.941;  62341.047;  65276.578;  58918.172; 26;   4.478; 247.071; 296.811; 151.987; 290.859; 140.844;  13.712;  -3.182;  -3.668;   4.492;   4.476;   4.030;   1.937;  -0.249;;;;;;;;;;;;;;;;;;
2006-07-24T00:08:38.553Z;0;4.8210e+01;0;     0.080;  6358.408;  62677.480; 0;  62354.129;  62677.480;  65614.328;  59255.918; 26;   4.479; 247.120; 296.860; 152.037; 290.907; 140.893;  13.713;  -3.176;  -3.661;   4.492;   4.476;   4.029;   1.939;  -0.248;;;;;;;;;;;;;;;;;;
2006-07-24T00:08:46.553Z;0;4.7830e+01;0;     0.073;  6358.408;  62432.699; 0;  62108.070;  62432.699;  65368.590;  59010.184; 26;   4.479; 247.169; 296.908; 152.087; 290.954; 140.942;  13.715;  -3.169;  -3.655;   4.493;   4.477;   4.029;   1.941;  -0.248;;;;;;;;;;;;;;;;;;
2006-07-24T00:08:54.553Z;0;4.7790e+01;0;     0.072;  6358.408;  62401.703; 0;  62076.914;  62401.703;  65337.473;  58979.066; 26;   4.480; 247.219; 296.956; 152.136; 291.001; 140.990;  13.717;  -3.162;  -3.648;   4.493;   4.477;   4.028;   1.943;  -0.247;;;;;;;;;;;;;;;;;;
2006-07-24T00:09:02.553Z;0;4.7810e+01;0;     0.076;  6341.160;  62414.031; 0;  62091.070;  62414.031;  65342.547;  59001.387; 26;   4.480; 247.268; 297.005; 152.186; 291.048; 141.039;  13.718;  -3.156;  -3.641;   4.494;   4.478;   4.028;   1.946;  -0.247;;;;;;;;;;;;;;;;;;
2006-07-24T00:09:10.552Z;0;4.7950e+01;0;     0.073;  6341.160;  62503.570; 0;  62181.074;  62503.570;  65432.434;  59091.273; 26;   4.481; 247.318; 297.053; 152.236; 291.095; 141.087;  13.720;  -3.149;  -3.634;   4.494;   4.478;   4.028;   1.948;  -0.246;;;;;;;;;;;;;;;;;;
2006-07-24T00:09:18.552Z;0;4.8100e+01;0;     0.078;  6341.160;  62599.734; 0;  62277.734;  62599.734;  65528.973;  59187.812; 26;   4.481; 247.367; 297.101; 152.286; 291.143; 141.136;  13.722;  -3.142;  -3.628;   4.495;   4.479;   4.027;   1.950;  -0.246;;;;;;;;;;;;;;;;;;
2006-07-24T00:09:26.552Z;0;4.7990e+01;0;     0.076;  6341.160;  62534.207; 0;  62211.871;  62534.207;  65463.191;  59122.031; 26;   4.482; 247.417; 297.150; 152.336; 291.190; 141.184;  13.724;  -3.136;  -3.621;   4.495;   4.479;   4.027;   1.952;  -0.245;;;;;;;;;;;;;;;;;;
2006-07-24T00:09:34.552Z;0;4.8210e+01;0;     0.078;  6341.160;  62674.832; 0;  62353.223;  62674.832;  65604.359;  59263.199; 26;   4.482; 247.466; 297.198; 152.386; 291.237; 141.233;  13.725;  -3.129;  -3.614;   4.495;   4.480;   4.027;   1.954;  -0.245;;;;;;;;;;;;;;;;;;
2006-07-24T00:09:42.552Z;0;4.8400e+01;0;     0.081;  6341.160;  62795.477; 0;  62474.488;  62795.477;  65725.469;  59384.309; 26;   4.483; 247.516; 297.246; 152.436; 291.284; 141.281;  13.727;  -3.122;  -3.607;   4.496;   4.480;   4.026;   1.956;  -0.244;;;;;;;;;;;;;;;;;;
2006-07-24T00:09:50.552Z;0;4.8470e+01;0;     0.079;  6341.160;  62842.938; 0;  62522.191;  62842.938;  65773.109;  59431.953; 26;   4.483; 247.565; 297.295; 152.485; 291.331; 141.330;  13.729;  -3.116;  -3.601;   4.496;   4.481;   4.026;   1.958;  -0.244;;;;;;;;;;;;;;;;;;